This is the latest recevied weather packets stored in our database for station/object KW4UJ. If no packets are shown the sender has not sent any weather packets the latest 10 day(s).
| Time | Temp. | Humidity | Pressure | Rain* | Wind** | Luminosity | Snow |
|---|---|---|---|---|---|---|---|
| 1777935326 | 23.33° C | 38% | 1009.6 hPa | 0 mm | - | 35 W/m² | - |
| 1777935023 | 23.33° C | 38% | 1009.4 hPa | 0 mm | - | 38 W/m² | - |
| 1777934720 | 23.33° C | 37% | 1009.5 hPa | 0 mm | - | 40 W/m² | - |
| 1777934417 | 23.33° C | 37% | 1009.5 hPa | 0 mm | - | 41 W/m² | - |
| 1777934113 | 23.89° C | 38% | 1009.6 hPa | 0 mm | - | 44 W/m² | - |
| 1777933809 | 24.44° C | 37% | 1009.6 hPa | 0 mm | - | 133 W/m² | - |
| 1777933506 | 24.44° C | 36% | 1009.8 hPa | 0 mm | - | 148 W/m² | - |
| 1777933204 | 24.44° C | 36% | 1009.5 hPa | 0 mm | - | 158 W/m² | - |
| 1777932901 | 25° C | 36% | 1009.2 hPa | 0 mm | - | 168 W/m² | - |
| 1777932598 | 24.44° C | 35% | 1009.5 hPa | 0 mm | - | 185 W/m² | - |
| 1777932294 | 24.44° C | 36% | 1009.4 hPa | 0 mm | - | 197 W/m² | - |
| 1777931991 | 24.44° C | 35% | 1009.4 hPa | 0 mm | - | 213 W/m² | - |
| 1777931687 | 24.44° C | 35% | 1009.3 hPa | 0 mm | - | 226 W/m² | - |
| 1777931384 | 24.44° C | 34% | 1009.4 hPa | 0 mm | - | 239 W/m² | - |
| 1777931081 | 25° C | 35% | 1009.5 hPa | 0 mm | - | 255 W/m² | - |
| 1777930777 | 25° C | 34% | 1009.5 hPa | 0 mm | - | 275 W/m² | - |
| 1777930473 | 25.56° C | 33% | 1009.4 hPa | 0 mm | - | 295 W/m² | - |
| 1777930171 | 25° C | 33% | 1009.3 hPa | 0 mm | - | 314 W/m² | - |
| 1777929866 | 25° C | 33% | 1009.4 hPa | 0 mm | - | 324 W/m² | - |
| 1777929565 | 25° C | 33% | 1009.2 hPa | 0 mm | - | 323 W/m² | - |
| 1777929260 | 25° C | 34% | 1009.5 hPa | 0 mm | - | 344 W/m² | - |
| 1777928958 | 25.56° C | 32% | 1009.4 hPa | 0 mm | - | 365 W/m² | - |
| 1777928655 | 26.11° C | 32% | 1009.3 hPa | 0 mm | - | 391 W/m² | - |
| 1777928352 | 25.56° C | 34% | 1009.3 hPa | 0 mm | - | 440 W/m² | - |
| 1777928050 | 25.56° C | 32% | 1009.1 hPa | 0 mm | - | 453 W/m² | - |
* Rain latest hour (hover to see other rain measurements)
** Current wind speed in m/s (hover to see current wind gust speed)